Sanford, FL

7:50 PM EST on January 22, 2017 (GMT -0500)
Orlando Sanford

Weather History for KSFB - November, 2012

Change the Weather History Date:

Thursday, November 22, 2012

  Actual Average Record
Temperature  
Mean Temperature 60 °F -  
Max Temperature 69 °F 74 °F 87 °F (1973)
Min Temperature 46 °F 53 °F 36 °F (1981)
Degree Days  
Heating Degree Days 6    
Growing Degree Days 10 (Base 50)    
Moisture  
Dew Point 40 °F    
Average Humidity 56    
Maximum Humidity 89    
Minimum Humidity 21    
Precipitation  
Precipitation 0.00 in - - ()
Sea Level Pressure  
Sea Level Pressure 30.13 in    
Wind  
Wind Speed 9 mph (NNW)    
Max Wind Speed 21 mph    
Max Gust Speed 29 mph    
Visibility 10 miles    
Events      
Averages and records for this station are not official NWS values.
T = Trace of Precipitation, MM = Missing Value Source: NWS Daily Summary

Daily Weather History Graph

Daily Weather History Graph

Search for Another Location

Airport or City:

Trip Planner

Search our weather history database for the weather conditions in past years. The results will help you decide how hot, cold, wet, or windy it might be!

Date:

Astronomy

Nov. 22, 2012 Rise Set
Actual Time 6:53 AM EST 5:28 PM EST
Civil Twilight 6:28 AM EST 5:53 PM EST
Nautical Twilight 5:59 AM EST 6:22 PM EST
Astronomical Twilight 5:31 AM EST 6:50 PM EST
Moon 1:51 PM EST (11/22) 1:36 AM EST (11/22)
Length of Visible Light 11h 25m
Length of Day
10h 34m
Waxing Gibbous, 71% of the Moon is Illuminated
Nov 22
Waxing Gibbous
Nov 28
Full
Dec 6
Last Quarter
Dec 13
New
Dec 20
First Quarter

Hourly Weather History & Observations

Time (EST) Temp. Dew Point Humidity Pressure Visibility Wind Dir Wind Speed Gust Speed Precip Events Conditions
12:53 AM 50.0 °F 46.9 °F 89% 30.09 in 10.0 mi WNW 4.6 mph - N/A   Clear
1:53 AM 54.0 °F 48.0 °F 80% 30.08 in 10.0 mi NNW 8.1 mph - N/A   Clear
2:53 AM 54.0 °F 48.0 °F 80% 30.08 in 10.0 mi NNW 9.2 mph - N/A   Clear
3:53 AM 53.1 °F 46.9 °F 80% 30.07 in 10.0 mi NNW 9.2 mph - N/A   Clear
4:53 AM 53.1 °F 46.0 °F 77% 30.08 in 10.0 mi NNW 10.4 mph - N/A   Clear
5:53 AM 52.0 °F 46.0 °F 80% 30.08 in 10.0 mi NNW 11.5 mph - N/A   Clear
6:53 AM 52.0 °F 46.9 °F 83% 30.10 in 10.0 mi NNW 10.4 mph - N/A   Clear
7:53 AM 54.0 °F 46.9 °F 77% 30.13 in 10.0 mi NW 9.2 mph - N/A   Clear
8:53 AM 57.0 °F 48.0 °F 72% 30.14 in 10.0 mi North 12.7 mph - N/A   Clear
9:53 AM 62.1 °F 48.0 °F 60% 30.15 in 10.0 mi North 12.7 mph - N/A   Clear
10:53 AM 66.0 °F 44.1 °F 45% 30.15 in 10.0 mi North 11.5 mph 20.7 mph N/A   Clear
11:53 AM 68.0 °F 44.1 °F 42% 30.14 in 10.0 mi North 13.8 mph - N/A   Clear
12:53 PM 69.1 °F 39.0 °F 33% 30.12 in 10.0 mi North 17.3 mph 24.2 mph N/A   Clear
1:53 PM 68.0 °F 39.0 °F 35% 30.10 in 10.0 mi North 16.1 mph 26.5 mph N/A   Clear
2:53 PM 68.0 °F 33.1 °F 27% 30.11 in 10.0 mi North 20.7 mph 28.8 mph N/A   Clear
3:53 PM 66.0 °F 25.0 °F 21% 30.11 in 10.0 mi North 13.8 mph 26.5 mph N/A   Clear
4:53 PM 63.0 °F 25.0 °F 24% 30.14 in 10.0 mi North 13.8 mph 20.7 mph N/A   Clear
5:53 PM 57.9 °F 28.9 °F 33% 30.16 in 10.0 mi North 5.8 mph - N/A   Clear
6:53 PM 55.0 °F 33.1 °F 43% 30.17 in 10.0 mi NNE 5.8 mph - N/A   Clear
7:53 PM 55.9 °F 33.1 °F 42% 30.18 in 10.0 mi North 8.1 mph - N/A   Clear
8:53 PM 55.0 °F 37.0 °F 51% 30.19 in 10.0 mi North 6.9 mph - N/A   Clear
9:53 PM 55.0 °F 37.9 °F 53% 30.19 in 10.0 mi NNW 4.6 mph - N/A   Clear
10:53 PM 54.0 °F 37.0 °F 53% 30.20 in 10.0 mi North 5.8 mph - N/A   Clear
11:53 PM 46.9 °F 36.0 °F 66% 30.19 in 10.0 mi WNW 3.5 mph - N/A   Clear